Temp
-11 -11 -11 -11 -12 -11 -11 -12 -12 -12 -13 -12 -13 -13 -13 -13 -12 -13 -13 -13 -13 -13 -12 -12 -12 -12 -13 -13 -13 -13 -13 -13 -13 -13 -13 -14 -14 -14 -14 -14 -14 -14 -14
-12 -11 -11 -12 -11 -11 -12 -11 -12 -12 -13 -13 -13 -13 -14 -13 -13 -13 -13 -13 -13 -13 -13 -13 -12 -13 -13 -13 -13 -13 -13 -13 -14 -14 -14 -14 -14 -14 -14 -14 -14 -14 -14
-11 -11 -12 -12 -12 -12 -12 -11 -11 -12 -13 -13 -13 -13 -13 -13 -13 -13 -13 -13 -13 -13 -13 -13 -13 -13 -13 -13 -14 -14 -14 -14 -14 -14 -14 -15 -14 -14 -14 -15 -14 -14 -14
-12 -12 -11 -12 -12 -12 -12 -11 -12 -13 -13 -12 -12 -13 -13 -13 -13 -13 -13 -12 -13 -13 -13 -13 -13 -13 -13 -14 -14 -14 -14 -15 -15 -15 -15 -15 -15 -15 -15 -15 -15 -14 -14
-12 -12 -12 -12 -12 -12 -12 -12 -12 -13 -13 -12 -13 -13 -13 -13 -13 -13 -13 -13 -13 -13 -13 -13 -13 -13 -14 -14 -14 -14 -15 -15 -15 -16 -16 -16 -16 -15 -15 -15 -15 -15 -15
-12 -12 -12 -12 -12 -12 -13 -13 -12 -12 -12 -12 -12 -13 -13 -13 -13 -13 -13 -13 -13 -13 -14 -14 -14 -14 -14 -14 -15 -15 -16 -16 -16 -16 -16 -16 -15 -15 -16 -15 -15 -15 -15
-12 -12 -12 -12 -12 -13 -12 -12 -12 -12 -12 -12 -12 -12 -13 -13 -13 -13 -13 -13 -13 -13 -13 -13 -14 -14 -15 -15 -16 -16 -17 -17 -17 -18 -17 -16 -16 -16 -16 -16 -16 -15 -15
-12 -12 -12 -12 -12 -12 -12 -13 -13 -12 -12 -13 -13 -13 -13 -13 -12 -13 -13 -13 -13 -14 -13 -13 -14 -14 -14 -15 -16 -17 -18 -18 -18 -18 -17 -17 -17 -16 -17 -16 -16 -15 -15
-12 -13 -12 -12 -12 -13 -13 -13 -13 -13 -13 -13 -13 -13 -13 -13 -13 -12 -12 -13 -14 -14 -14 -14 -14 -14 -15 -15 -16 -16 -16 -17 -18 -18 -18 -17 -18 -17 -17 -16 -16 -16 -16
-12 -13 -13 -13 -13 -13 -13 -13 -13 -13 -13 -13 -13 -13 -13 -13 -13 -13 -14 -14 -14 -14 -14 -14 -14 -15 -15 -15 -16 -16 -16 -17 -18 -18 -18 -18 -18 -17 -17 -16 -16 -16 -16
-13 -13 -13 -13 -13 -13 -13 -13 -13 -13 -13 -13 -14 -14 -14 -14 -14 -14 -15 -15 -14 -14 -14 -14 -15 -15 -16 -16 -16 -16 -16 -17 -17 -18 -18 -18 -18 -18 -17 -17 -16 -16 -17
-13 -13 -13 -13 -14 -14 -13 -13 -13 -13 -13 -13 -14 -14 -14 -14 -14 -14 -14 -14 -14 -14 -15 -15 -16 -16 -16 -16 -16 -16 -16 -16 -16 -17 -18 -18 -17 -17 -17 -16 -16 -16 -16
-13 -13 -13 -14 -14 -14 -13 -14 -14 -13 -14 -14 -14 -14 -14 -14 -14 -14 -14 -14 -14 -15 -15 -15 -16 -16 -16 -16 -17 -17 -16 -16 -16 -17 -17 -17 -16 -16 -16 -16 -16 -16 -16
-13 -13 -13 -13 -14 -14 -14 -14 -14 -14 -14 -14 -14 -14 -14 -14 -14 -14 -14 -14 -15 -15 -15 -16 -16 -16 -16 -16 -17 -17 -17 -17 -17 -17 -17 -17 -16 -16 -16 -17 -16 -16 -16
-13 -13 -13 -14 -14 -14 -14 -15 -15 -15 -15 -14 -14 -14 -14 -14 -14 -14 -15 -15 -15 -15 -15 -16 -16 -16 -16 -16 -16 -17 -16 -17 -17 -17 -17 -17 -17 -17 -17 -17 -17 -16 -16
-14 -13 -13 -13 -14 -14 -14 -14 -14 -14 -15 -15 -15 -15 -14 -14 -15 -15 -15 -15 -15 -15 -15 -16 -16 -16 -16 -17 -16 -16 -17 -17 -17 -17 -17 -17 -17 -17 -17 -17 -16 -16 -16
-14 -14 -14 -14 -14 -14 -14 -14 -14 -14 -14 -14 -14 -15 -15 -15 -15 -15 -15 -15 -15 -15 -14 -15 -16 -16 -16 -17 -17 -17 -17 -17 -17 -17 -17 -17 -17 -17 -17 -17 -16 -16 -16
-14 -14 -15 -15 -15 -15 -14 -15 -15 -14 -14 -14 -14 -14 -14 -14 -14 -14 -14 -15 -14 -15 -15 -15 -16 -16 -17 -17 -16 -16 -16 -16 -17 -17 -17 -17 -17 -17 -17 -17 -17 -17 -16
-14 -14 -15 -15 -15 -15 -15 -15 -15 -15 -15 -15 -15 -14 -15 -14 -14 -15 -15 -15 -15 -15 -15 -15 -15 -16 -16 -16 -16 -16 -17 -17 -17 -17 -17 -17 -17 -17 -17 -17 -17 -17 -17
-14 -15 -15 -15 -15 -15 -15 -15 -15 -15 -15 -15 -15 -15 -15 -15 -15 -15 -15 -15 -15 -15 -15 -15 -15 -16 -16 -16 -16 -16 -16 -17 -16 -16 -17 -17 -17 -17 -17 -17 -17 -17 -17
-14 -14 -14 -15 -15 -15 -16 -16 -16 -16 -16 -16 -16 -16 -16 -16 -16 -16 -15 -16 -16 -15 -15 -15 -15 -15 -15 -16 -16 -17 -16 -17 -17 -17 -16 -16 -16 -17 -17 -17 -17 -17 -17
-16 -15 -15 -15 -15 -15 -16 -16 -16 -16 -16 -16 -16 -16 -16 -16 -16 -16 -16 -16 -16 -16 -16 -15 -15 -15 -16 -16 -16 -17 -16 -16 -17 -17 -17 -17 -17 -17 -17 -17 -17 -17 -17
-16 -16 -16 -16 -16 -16 -16 -16 -16 -16 -16 -16 -16 -17 -17 -17 -17 -16 -16 -16 -16 -16 -16 -16 -15 -16 -16 -17 -17 -16 -17 -17 -17 -17 -17 -16 -17 -17 -17 -18 -17 -17 -18
-15 -15 -15 -16 -16 -16 -16 -16 -16 -16 -16 -16 -16 -17 -16 -17 -17 -17 -17 -17 -17 -17 -16 -16 -15 -16 -16 -16 -17 -16 -17 -17 -16 -16 -16 -17 -17 -17 -17 -17 -18 -18 -18
-15 -16 -15 -15 -16 -15 -16 -16 -16 -16 -15 -15 -16 -16 -16 -17 -17 -17 -17 -17 -17 -17 -17 -16 -16 -16 -16 -17 -17 -17 -17 -17 -17 -17 -16 -16 -17 -17 -17 -17 -17 -17 -18
-16 -16 -16 -16 -16 -16 -16 -15 -15 -15 -15 -15 -15 -15 -15 -16 -16 -17 -17 -17 -16 -17 -17 -17 -17 -16 -16 -16 -17 -17 -17 -16 -16 -17 -16 -16 -16 -16 -17 -17 -17 -18 -18
Height
5731 5739 5747 5752 5756 5759 5762 5769 5777 5783 5787 5788 5790 5793 5797 5799 5802 5804 5807 5809 5810 5812 5813 5813 5813 5813 5813 5813 5814 5814 5815 5815 5816 5817 5816 5815 5816 5818 5818 5816 5816 5816 5816
5727 5736 5744 5749 5754 5757 5760 5765 5774 5778 5782 5784 5787 5788 5793 5795 5798 5802 5803 5804 5806 5808 5809 5809 5808 5809 5809 5808 5808 5809 5810 5810 5810 5811 5811 5811 5811 5812 5813 5812 5811 5812 5811
5726 5734 5741 5744 5750 5755 5758 5760 5769 5776 5776 5778 5780 5782 5787 5790 5793 5796 5798 5799 5801 5803 5804 5805 5804 5805 5804 5804 5803 5804 5804 5804 5805 5806 5806 5806 5805 5807 5808 5807 5807 5807 5807
5725 5731 5738 5744 5748 5752 5755 5758 5764 5769 5771 5772 5772 5775 5780 5784 5787 5790 5792 5793 5794 5797 5799 5800 5799 5799 5799 5798 5798 5798 5799 5799 5799 5800 5800 5802 5801 5802 5803 5803 5802 5803 5802
5725 5730 5737 5742 5745 5748 5753 5754 5758 5764 5765 5765 5765 5767 5773 5777 5781 5782 5785 5787 5788 5791 5793 5794 5794 5793 5793 5793 5793 5793 5793 5793 5793 5795 5795 5796 5796 5797 5799 5799 5797 5798 5797
5723 5728 5732 5737 5742 5746 5748 5752 5753 5756 5759 5759 5761 5761 5765 5771 5773 5778 5779 5781 5783 5784 5786 5787 5787 5787 5787 5787 5788 5788 5788 5788 5788 5790 5791 5791 5792 5793 5792 5791 5791 5792 5791
5721 5725 5729 5733 5737 5741 5744 5747 5749 5750 5753 5756 5755 5756 5758 5765 5768 5770 5773 5773 5775 5777 5779 5780 5780 5780 5781 5781 5782 5782 5782 5783 5782 5783 5785 5786 5786 5787 5787 5786 5787 5786 5785
5717 5721 5725 5729 5733 5737 5740 5741 5744 5744 5747 5750 5750 5751 5754 5759 5762 5763 5764 5766 5768 5771 5772 5772 5772 5773 5773 5774 5774 5774 5775 5776 5776 5776 5778 5778 5778 5780 5780 5780 5780 5779 5777
5712 5717 5721 5725 5729 5732 5734 5735 5738 5739 5739 5742 5744 5746 5750 5753 5754 5755 5757 5761 5762 5764 5763 5764 5765 5765 5766 5767 5767 5767 5768 5768 5769 5769 5770 5771 5771 5771 5772 5772 5772 5770 5769
5712 5717 5718 5721 5724 5726 5729 5730 5731 5733 5734 5736 5739 5741 5743 5746 5746 5749 5749 5753 5754 5757 5756 5757 5758 5758 5758 5759 5759 5759 5760 5760 5761 5762 5763 5763 5764 5764 5765 5764 5764 5763 5762
5712 5715 5717 5719 5721 5723 5723 5724 5725 5727 5729 5730 5732 5733 5735 5737 5738 5740 5741 5745 5748 5749 5749 5750 5750 5751 5751 5752 5752 5752 5752 5751 5753 5754 5755 5755 5755 5755 5757 5757 5756 5756 5755
5708 5710 5713 5716 5717 5718 5719 5719 5720 5722 5723 5724 5725 5727 5729 5730 5733 5734 5735 5738 5741 5741 5742 5742 5743 5744 5744 5745 5744 5745 5745 5745 5745 5745 5746 5746 5747 5748 5748 5748 5747 5747 5746
5706 5707 5708 5708 5711 5713 5716 5718 5718 5719 5720 5721 5723 5724 5725 5726 5727 5728 5731 5733 5734 5734 5735 5736 5737 5737 5738 5738 5738 5738 5738 5738 5738 5737 5737 5738 5739 5739 5739 5739 5738 5738 5737
5703 5703 5703 5704 5706 5708 5710 5711 5713 5715 5716 5718 5719 5720 5721 5722 5723 5724 5725 5726 5727 5728 5728 5730 5730 5731 5731 5731 5731 5731 5730 5731 5731 5730 5730 5729 5730 5730 5730 5730 5729 5728 5726
5702 5702 5702 5703 5703 5704 5706 5707 5709 5711 5711 5712 5713 5715 5715 5717 5718 5719 5719 5719 5719 5720 5720 5722 5722 5724 5724 5724 5723 5723 5723 5724 5723 5723 5723 5722 5722 5722 5721 5720 5719 5716 5712
5698 5699 5699 5700 5701 5702 5702 5702 5703 5704 5704 5705 5706 5707 5709 5710 5711 5711 5712 5712 5712 5712 5711 5716 5716 5716 5715 5714 5715 5715 5716 5716 5715 5715 5714 5713 5713 5712 5711 5710 5708 5704 5699
5697 5696 5697 5698 5698 5699 5700 5700 5700 5700 5700 5700 5699 5700 5702 5702 5703 5704 5704 5705 5704 5704 5703 5707 5707 5708 5706 5705 5705 5705 5704 5705 5705 5705 5704 5703 5701 5700 5699 5696 5694 5690 5687
5694 5694 5695 5695 5695 5696 5696 5695 5695 5696 5696 5695 5695 5696 5696 5695 5697 5697 5697 5696 5696 5696 5694 5693 5698 5699 5698 5697 5695 5694 5694 5694 5694 5693 5691 5689 5688 5686 5685 5682 5679 5676 5674
5688 5690 5690 5690 5690 5690 5691 5691 5691 5691 5691 5690 5689 5689 5689 5689 5691 5689 5689 5689 5688 5687 5685 5683 5687 5689 5690 5689 5688 5686 5685 5683 5682 5680 5677 5675 5674 5672 5671 5668 5666 5663 5661
5681 5681 5682 5683 5684 5684 5685 5685 5685 5685 5684 5684 5683 5684 5683 5683 5684 5682 5681 5681 5680 5677 5677 5674 5675 5677 5676 5677 5676 5676 5672 5669 5667 5666 5664 5662 5659 5658 5656 5654 5652 5650 5646
5674 5674 5674 5676 5676 5676 5677 5677 5676 5675 5675 5675 5675 5676 5676 5675 5675 5674 5672 5673 5669 5666 5665 5665 5663 5663 5663 5661 5662 5660 5656 5656 5655 5651 5649 5647 5646 5644 5642 5640 5637 5635 5632
5666 5665 5667 5667 5667 5669 5669 5668 5667 5666 5665 5665 5666 5666 5666 5665 5665 5663 5660 5659 5657 5655 5655 5653 5651 5648 5648 5645 5644 5644 5640 5639 5639 5638 5636 5635 5632 5629 5626 5624 5622 5618 5615
5654 5657 5657 5657 5657 5658 5659 5658 5657 5654 5654 5654 5653 5653 5654 5654 5653 5651 5650 5648 5645 5644 5643 5642 5638 5636 5633 5633 5630 5628 5628 5625 5624 5622 5620 5616 5617 5615 5612 5609 5605 5602 5598
5645 5645 5645 5645 5645 5647 5648 5647 5644 5642 5640 5640 5640 5641 5639 5640 5640 5640 5637 5634 5633 5630 5628 5627 5625 5624 5622 5620 5618 5614 5613 5610 5610 5608 5606 5603 5601 5599 5596 5592 5588 5584 5579
5634 5634 5635 5634 5633 5634 5633 5632 5630 5627 5627 5626 5627 5627 5627 5626 5627 5625 5622 5620 5619 5617 5615 5612 5611 5610 5608 5607 5604 5601 5598 5595 5593 5592 5589 5586 5583 5580 5578 5573 5569 5564 5561
5622 5621 5621 5620 5619 5621 5620 5620 5618 5616 5614 5613 5614 5612 5613 5612 5611 5609 5607 5605 5603 5602 5600 5598 5595 5594 5592 5590 5587 5584 5582 5576 5577 5573 5567 5568 5563 5559 5555 5552 5548 5544 5540
Wind_Speed
41 38 41 41 21 30 29 26 24 25 29 31 33 34 34 30 27 15 20 17 15 18 17 17 17 19 21 22 24 25 25 23 24 24 25 25 25 24 21 19 17 16 16
40 47 38 36 28 23 28 25 28 29 29 31 33 35 34 36 23 22 21 19 18 22 21 19 18 20 22 22 25 27 26 26 26 27 26 25 24 24 23 20 17 18 18
43 37 27 25 28 30 27 24 23 25 29 31 32 35 32 34 26 24 23 21 21 24 22 21 20 19 21 23 26 27 28 29 28 27 25 26 24 24 22 19 18 20 21
37 27 24 27 22 26 24 20 20 14 25 31 43 33 32 36 30 27 27 25 23 25 24 25 21 21 22 25 28 29 31 31 29 27 25 26 21 23 22 23 19 24 23
37 32 31 31 22 25 24 20 19 19 22 22 25 37 34 36 37 33 30 28 27 26 28 27 25 25 24 29 31 33 34 33 33 32 29 23 22 23 24 23 21 28 25
41 36 34 31 25 28 26 26 25 22 22 21 26 36 33 40 38 35 32 32 30 28 30 29 28 27 27 29 33 37 35 36 34 31 28 24 25 25 25 21 24 29 25
43 39 37 37 29 31 25 27 30 30 23 25 23 27 30 38 39 41 40 40 35 32 31 30 30 30 30 32 35 38 38 39 38 34 34 34 30 28 26 23 28 29 29
43 46 41 41 33 31 31 31 31 32 30 28 23 26 31 38 42 44 43 41 35 34 33 33 32 33 33 34 37 39 40 43 39 34 30 33 34 33 28 28 31 32 33
29 35 33 31 28 29 32 34 35 31 32 30 23 24 29 35 50 43 42 36 36 35 34 33 33 35 35 36 37 37 40 43 39 36 34 35 33 38 35 33 35 35 35
22 31 25 26 25 25 30 29 29 26 26 29 29 27 28 33 38 38 28 31 30 33 32 33 34 35 34 34 34 35 38 40 36 38 37 37 39 38 39 36 37 36 35
14 18 19 25 27 28 23 25 30 30 30 29 30 33 33 31 32 31 30 30 31 31 31 33 32 31 29 29 31 32 35 37 38 42 40 44 42 42 43 42 39 37 37
12 17 23 24 22 21 20 19 21 22 20 18 17 19 27 28 29 27 28 32 30 31 31 32 31 31 31 29 27 28 30 32 33 35 40 35 35 37 41 42 40 41 42
11 11 19 25 25 23 22 21 20 21 20 20 21 22 23 24 27 28 31 31 29 32 32 33 34 33 32 32 33 33 34 31 30 32 34 35 38 40 41 40 44 46 46
10 8 6 9 16 20 24 24 24 23 21 22 24 25 27 28 25 24 25 27 30 31 34 35 36 35 36 35 36 37 37 37 37 37 38 38 39 39 40 45 46 45 48
8 8 9 9 11 14 19 24 26 26 26 27 27 30 31 28 31 30 29 30 33 35 37 37 38 37 38 40 38 37 35 32 34 37 38 40 43 44 45 45 45 49 53
11 10 9 9 11 13 12 12 15 19 19 24 35 39 36 35 35 34 33 34 34 36 37 37 37 38 40 42 42 40 40 42 42 43 44 45 46 46 47 50 51 51 49
14 12 13 14 14 15 15 16 17 17 18 17 16 22 31 34 37 38 38 37 37 38 39 35 38 39 41 42 42 44 44 45 48 45 43 42 48 52 49 51 50 47 49
17 17 17 16 18 19 20 20 21 22 23 23 23 20 24 27 26 29 32 33 34 35 38 38 37 39 42 45 47 49 49 51 51 49 51 48 50 55 51 50 49 50 51
22 21 21 22 22 22 22 23 25 27 28 30 30 29 30 30 28 31 33 35 37 39 41 42 40 41 43 46 48 49 49 52 52 51 56 62 60 57 55 54 54 56 58
29 28 27 28 28 28 26 26 27 28 31 32 33 32 34 34 32 35 38 37 39 41 41 43 43 40 41 42 44 44 48 49 49 49 50 53 56 59 60 60 60 59 57
36 34 34 32 32 33 31 31 32 33 33 33 34 34 34 35 35 37 41 38 42 45 46 47 51 52 50 51 48 44 49 48 49 49 49 48 49 54 57 59 57 57 57
38 39 37 37 38 37 37 36 37 38 40 40 38 38 37 39 38 39 40 41 45 47 49 51 52 52 50 51 51 48 51 50 50 52 50 50 52 54 54 54 60 62 64
41 42 41 42 41 40 40 41 41 43 44 45 45 44 44 43 43 44 44 45 46 46 44 41 43 46 48 50 52 51 50 52 52 51 51 51 57 56 59 59 63 68 69
48 47 46 44 45 43 43 45 47 47 49 49 49 49 50 49 47 47 48 49 50 51 51 51 51 49 49 51 53 54 54 54 54 55 55 58 59 62 63 64 68 72 68
49 51 51 51 51 50 52 53 54 54 54 55 53 54 54 53 51 51 52 54 53 55 56 55 56 58 57 54 52 52 56 56 57 55 58 66 65 63 69 69 70 71 71
45 50 52 53 55 56 57 57 58 59 60 57 57 55 56 56 54 57 60 60 61 60 59 63 62 62 60 61 60 57 65 67 66 67 68 74 77 77 79 81 77 75 73
Wind_Direction
186 188 202 209 210 214 211 210 200 212 228 231 233 235 241 238 239 234 247 247 241 255 254 256 264 265 261 256 251 253 252 251 247 248 247 242 244 250 254 254 260 270 281
199 199 205 218 211 209 204 213 207 215 223 229 236 240 243 249 221 234 242 245 249 250 260 259 259 267 263 252 248 252 253 253 249 250 251 247 247 251 253 257 266 274 280
184 185 198 208 213 216 215 212 215 221 226 232 236 244 247 243 220 232 243 244 248 248 256 258 258 263 257 252 248 252 253 251 249 249 253 251 249 254 254 258 265 275 277
188 184 196 194 203 206 209 222 221 231 244 252 242 236 244 240 226 230 239 244 245 246 249 260 256 260 259 253 250 255 254 251 245 248 249 253 253 257 258 260 266 271 271
197 196 198 195 199 203 208 213 231 251 245 236 249 230 237 236 235 228 236 242 243 248 251 255 259 258 259 256 253 252 252 250 244 252 250 246 251 256 258 261 272 277 277
198 207 199 203 217 222 230 234 235 249 249 235 236 234 233 236 233 235 238 243 245 248 251 259 256 257 256 256 256 252 251 250 251 252 251 248 253 258 260 265 263 273 281
208 215 215 226 226 221 230 238 232 251 250 244 235 240 236 233 243 234 240 242 244 249 254 255 256 256 255 254 254 253 252 250 254 248 255 250 255 262 269 273 264 278 283
216 220 227 223 228 227 242 245 250 253 252 243 233 233 237 242 248 241 242 245 246 251 257 258 256 253 255 255 255 251 252 252 251 253 255 249 252 260 273 270 277 282 287
214 213 216 217 231 243 243 248 251 247 247 236 227 235 243 253 251 253 260 265 250 251 254 252 251 255 256 257 258 259 257 258 248 255 250 258 257 256 258 265 277 285 291
199 215 227 223 238 245 244 236 237 240 239 233 236 244 254 259 266 265 256 247 246 249 250 252 255 257 258 256 256 255 257 256 250 257 252 259 256 263 257 264 276 281 286
196 208 209 216 222 230 229 232 234 235 238 238 238 245 244 246 249 235 239 241 244 248 252 254 253 254 257 253 255 254 254 253 253 253 253 257 256 256 258 264 274 281 284
220 229 232 225 228 230 225 223 222 217 215 220 230 244 245 241 238 231 230 239 245 252 252 252 251 252 252 247 251 258 259 260 258 254 256 260 255 255 260 267 275 279 280
224 236 229 226 229 231 229 238 239 229 223 229 236 235 234 234 236 237 238 244 250 252 253 251 248 249 250 252 261 262 258 262 263 260 259 260 260 261 266 272 276 277 278
233 231 201 203 227 236 243 250 244 245 241 239 243 247 250 244 237 246 248 253 255 255 254 252 252 251 253 255 259 262 259 261 260 262 261 264 265 265 270 276 278 278 281
232 231 226 217 224 230 239 243 244 247 252 255 243 245 249 248 253 255 252 254 259 258 258 255 257 258 257 256 256 258 260 258 260 263 265 268 269 271 273 273 278 283 287
244 241 240 236 237 239 235 231 234 242 250 258 255 249 249 251 254 255 261 261 263 265 265 261 263 261 259 259 256 258 260 261 262 266 270 271 269 270 274 275 280 287 288
265 255 250 251 252 252 253 256 254 254 254 261 269 254 254 256 256 262 259 263 264 265 268 263 256 256 256 258 259 262 264 268 270 270 269 273 273 270 275 280 283 286 290
259 266 268 260 250 250 253 256 257 256 257 257 259 262 260 257 258 260 260 262 263 264 268 271 264 259 258 260 265 267 268 270 274 274 276 277 273 277 278 283 286 286 290
249 253 256 261 267 268 265 261 261 263 264 265 263 261 260 263 265 265 265 265 266 267 269 271 270 267 267 267 267 269 273 274 274 275 275 275 278 277 274 281 283 288 289
251 249 246 248 254 259 264 268 267 266 265 264 265 264 264 265 263 265 266 267 268 269 270 270 272 272 272 270 269 271 271 270 274 277 277 277 275 271 271 278 282 283 286
256 256 257 257 255 255 258 262 266 269 270 269 268 268 267 266 266 269 270 270 268 269 270 274 275 277 277 278 277 274 275 271 275 278 278 276 278 276 275 277 280 279 285
261 262 263 264 264 264 264 265 265 267 268 270 271 269 269 271 273 273 274 276 274 274 276 278 278 278 279 277 276 274 275 274 274 275 277 276 277 276 276 277 279 274 285
253 258 259 263 263 264 262 263 263 264 265 267 269 270 271 271 269 268 270 271 272 276 276 277 281 277 276 277 277 277 273 273 272 273 274 275 278 276 274 279 279 279 284
257 257 258 259 260 256 257 259 260 262 264 263 263 265 269 271 271 270 269 271 273 276 280 284 289 287 284 281 278 278 278 275 276 277 278 278 281 281 280 276 279 281 280
258 260 260 261 264 265 259 255 255 257 262 263 264 264 266 268 269 270 271 273 274 276 279 279 282 286 287 284 280 279 279 279 278 280 280 283 281 281 283 277 282 283 280
262 262 263 262 263 264 265 267 267 267 266 263 265 270 273 273 271 271 273 272 273 278 279 279 278 288 285 284 275 277 277 277 278 282 276 280 279 277 284 281 278 277 280